Location: Azul
(36.7830°S, 59.8500°W)
Time: 16:53:26
(UTC-03:00)

ISS - Pass Details

Date: 27 February 2021
Orbit: 417 x 422 km, 51.6° (Epoch: 26 February)

Event Time Altitude Azimuth Distance (km) Brightness Sun altitude
Rises 21:53:47 0° 222° (SW) 2,404 1.3 -25.6°
Reaches altitude 10° 21:56:07 10° 209° (SSW) 1,533 -0.1 -26.0°
Enters shadow 21:57:38 20° 190° (S) 1,057 -1.3 -26.2°
